Kagoshima Airport
RJFK : now visible

Airfield :











YOU CAN JOIN US ON...

 
LOGIN :

Register | Disclaimer

   EN    FR    IT 

 









Legend :    VFR   Marginal VFR   IFR   Intensive IFR   Very Intensive IFR
Visi :
Ceiling :
>= 8 km
>= 3000ft
5 to 8 km
1000 to 3000 ft
1500m to 5 km
500 to 1000 ft
800 to 1500m
200 to 500 ft
< 800m
< 200 ft
Symbols :   Thunderstorms  Fog  Heavy snow  Heavy precipitations  Wind > 20 kt






- Airport Elevation : 906 ft
- IATA code : KOJ


RJFK - Kagoshima

CURRENT METAR :
  • 211200Z 02003KT 310V070 9999 FEW030 BKN/// 10/09 Q1027 RMK 1CU030 A3035

EXPIRED METARs :
  • 211100Z 07006KT 030V110 9999 FEW030 SCT/// 12/09 Q1027

TAF TAF RJFK
Valid from the 21 at 12:00 until the 22 at 18:00 UTC


211107Z 2112/2218 07006KT 9999 FEW025 SCT040
BECMG 2206/2209 33005KT



MET'MAP, your aeronautical weather chart ! - Copyright ORBIFLY December 2007 - Disclaimer

ORBIFLY MET'MAP TEAM :

Programming & Development : Alexandra Zaïnal
Concept & Development : Baudouin d'Aumeries
Co-Development & Prog : Marc-Olivier Méhu
Technical & hardware support : Manuel Goepfert

Contact : metmap@orbifly.com




SOURCES & CREDITS :

   NOAA       Earth
Advisory